Location: B?ogocice
(50.2413°N, 20.2361°E)
Time: 23:18:17
(UTC+00:00)

Cosmos 1437 Rocket - Pass Details

Date: 15 June 2024
Orbit: 477 x 530 km, 81.2° (Epoch: 18 July)

Event Time Altitude Azimuth Distance (km) Brightness Sun altitude
Exits shadow 00:16:15 - 149° (SSE) 1,859 5.2 -13.4°
Reaches altitude 10° 00:16:34 10° 146° (SSE) 1,747 5.1 -13.4°
Maximum altitude 00:19:42 24° 92° (E) 1,089 4.6 -13.2°
Drops below altitude 10° 00:22:49 10° 37° (NE) 1,732 6.7 -13.0°
Sets 00:25:11 0° 23° (NNE) 2,612 8.4 -12.8°
